Location: Newark
(43.6853°N, 70.3572°W)
Time: 00:00:43
(UTC+00:00)

OTV 5 (USA 277) - Visible Passes

Search period start: 24 August 2019 00:00
Search period end: 03 September 2019 00:00
Orbit: 305 x 329 km, 54.5° (Epoch: 20 August)

Date Brightness Start Highest point End Pass type
(mag) Time Alt. Az. Time Alt. Az. Time Alt. Az.
24 Aug ? 01:19:41 10° SW 01:21:23 35° SW 01:21:23 35° SW visible
25 Aug ? 00:00:49 10° S 00:02:49 19° SE 00:04:49 10° E visible
25 Aug ? 01:34:28 10° W 01:36:59 34° NNW 01:37:02 34° NNW visible
26 Aug ? 00:14:35 10° SW 00:17:13 51° SE 00:19:51 10° ENE visible
26 Aug ? 01:49:43 10° WNW 01:51:43 18° NNW 01:52:02 18° NNW visible
27 Aug ? 00:29:07 10° WSW 00:31:46 54° NW 00:34:25 10° NE visible
27 Aug ? 02:05:21 10° NW 02:06:35 12° NNW 02:06:36 12° NNW visible
28 Aug ? 00:44:08 10° W 00:46:27 24° NNW 00:48:45 10° NNE visible
29 Aug ? 00:59:34 10° WNW 01:01:15 15° NNW 01:02:55 10° NNE visible
30 Aug ? 01:15:28 10° NNW 01:16:09 11° NNW 01:16:49 10° N visible
30 Aug ? 23:53:53 10° WNW 23:55:56 19° NNW 23:57:58 10° NNE visible
01 Sep ? 00:09:32 10° NW 00:10:47 12° NNW 00:12:03 10° NNE visible
